| time (UTC) | temp F | wind direction | speed MPH | gust MPH | rain 1hr in | rain 24hr in | rain mn in | humidity % | barometer mb |
| 20260510223503 | 54 | 189 | 0.0 | 2.0 | 0.00 | 0.00 | 0.00 | 75 | 1017.7 |
| 20260510223014 | 54 | 232 | 0.0 | 2.0 | 0.00 | 0.00 | 0.00 | 77 | 1017.7 |
| 20260510222511 | 54 | 188 | 0.0 | 1.0 | 0.00 | 0.00 | 0.00 | 76 | 1017.6 |
| 20260510222009 | 54 | 188 | 0.0 | 2.0 | 0.00 | 0.00 | 0.00 | 75 | 1017.7 |
| 20260510221520 | 55 | 198 | 0.0 | 2.0 | 0.00 | 0.00 | 0.00 | 74 | 1017.7 |
| 20260510221006 | 55 | 208 | 0.0 | 2.0 | 0.00 | 0.00 | 0.00 | 75 | 1017.8 |
| 20260510220506 | 55 | 172 | 0.0 | 2.0 | 0.00 | 0.00 | 0.00 | 75 | 1017.5 |
| 20260510220023 | 55 | 173 | 0.0 | 2.0 | 0.00 | 0.00 | 0.00 | 76 | 1017.5 |
| 20260510215506 | 55 | 170 | 0.0 | 1.0 | 0.00 | 0.00 | 0.00 | 75 | 1017.6 |
| 20260510215006 | 55 | 229 | 0.0 | 4.0 | 0.00 | 0.00 | 0.00 | 75 | 1017.6 |
| 20260510214526 | 55 | 246 | 1.0 | 4.0 | 0.00 | 0.00 | 0.00 | 75 | 1017.5 |
| 20260510214008 | 55 | 221 | 1.0 | 3.0 | 0.00 | 0.00 | 0.00 | 75 | 1017.5 |
| 20260510213517 | 55 | 289 | 1.0 | 4.0 | 0.00 | 0.00 | 0.00 | 75 | 1017.5 |
| 20260510213028 | 55 | 275 | 2.0 | 4.0 | 0.00 | 0.00 | 0.00 | 74 | 1017.6 |
| 20260510212503 | 56 | 279 | 2.0 | 7.0 | 0.00 | 0.00 | 0.00 | 74 | 1017.6 |
| 20260510212004 | 56 | 250 | 3.0 | 7.0 | 0.00 | 0.00 | 0.00 | 74 | 1017.7 |
| 20260510211524 | 56 | 254 | 2.0 | 8.0 | 0.00 | 0.00 | 0.00 | 74 | 1017.7 |
| 20260510211013 | 56 | 246 | 3.0 | 8.0 | 0.00 | 0.00 | 0.00 | 74 | 1017.7 |
| 20260510210507 | 56 | 296 | 3.0 | 9.0 | 0.00 | 0.00 | 0.00 | 74 | 1017.8 |
| 20260510210021 | 56 | 250 | 5.0 | 9.0 | 0.00 | 0.00 | 0.00 | 73 | 1017.7 |
| 20260510205506 | 56 | 249 | 4.0 | 6.0 | 0.00 | 0.00 | 0.00 | 73 | 1017.6 |
| 20260510205007 | 56 | 221 | 3.0 | 6.0 | 0.00 | 0.00 | 0.00 | 73 | 1017.6 |
| 20260510204524 | 56 | 251 | 3.0 | 5.0 | 0.00 | 0.00 | 0.00 | 73 | 1017.4 |
| 20260510204006 | 57 | 245 | 3.0 | 7.0 | 0.00 | 0.00 | 0.00 | 72 | 1017.4 |
| 20260510203510 | 57 | 232 | 3.0 | 7.0 | 0.00 | 0.00 | 0.00 | 72 | 1017.4 |
| 20260510203036 | 57 | 267 | 4.0 | 8.0 | 0.00 | 0.00 | 0.00 | 72 | 1017.3 |
| 20260510202510 | 57 | 261 | 3.0 | 8.0 | 0.00 | 0.00 | 0.00 | 72 | 1017.1 |
| 20260510202008 | 57 | 283 | 3.0 | 8.0 | 0.00 | 0.00 | 0.00 | 72 | 1017.0 |
| 20260510201525 | 57 | 253 | 2.0 | 8.0 | 0.00 | 0.00 | 0.00 | 72 | 1017.0 |
| 20260510201007 | 57 | 243 | 2.0 | 6.0 | 0.00 | 0.00 | 0.00 | 72 | 1016.8 |
| 20260510200509 | 57 | 258 | 1.0 | 4.0 | 0.00 | 0.00 | 0.00 | 72 | 1016.9 |
| 20260510200018 | 58 | 256 | 2.0 | 7.0 | 0.00 | 0.00 | 0.00 | 72 | 1016.9 |
| 20260510195510 | 58 | 251 | 3.0 | 7.0 | 0.00 | 0.00 | 0.00 | 72 | 1016.9 |
| 20260510195010 | 58 | 294 | 2.0 | 4.0 | 0.00 | 0.00 | 0.00 | 72 | 1016.8 |
| 20260510194529 | 58 | 261 | 2.0 | 6.0 | 0.00 | 0.00 | 0.00 | 71 | 1016.8 |
| 20260510194007 | 58 | 284 | 2.0 | 6.0 | 0.00 | 0.00 | 0.00 | 72 | 1017.0 |
| 20260510193507 | 58 | 280 | 2.0 | 5.0 | 0.00 | 0.00 | 0.00 | 71 | 1017.0 |
| 20260510193024 | 58 | 293 | 3.0 | 5.0 | 0.00 | 0.00 | 0.00 | 71 | 1017.0 |
| 20260510192507 | 58 | 254 | 2.0 | 4.0 | 0.00 | 0.00 | 0.00 | 71 | 1016.7 |
| 20260510192012 | 58 | 241 | 2.0 | 7.0 | 0.00 | 0.00 | 0.00 | 71 | 1016.7 |
| 20260510191528 | 58 | 245 | 3.0 | 7.0 | 0.00 | 0.00 | 0.00 | 71 | 1016.6 |
| 20260510191011 | 58 | 227 | 2.0 | 4.0 | 0.00 | 0.00 | 0.00 | 70 | 1016.6 |
| 20260510190510 | 58 | 263 | 2.0 | 5.0 | 0.00 | 0.00 | 0.00 | 70 | 1016.7 |
| 20260510190014 | 58 | 252 | 3.0 | 5.0 | 0.00 | 0.00 | 0.00 | 70 | 1016.6 |
| 20260510185506 | 58 | 174 | 2.0 | 5.0 | 0.00 | 0.00 | 0.00 | 69 | 1016.6 |
| 20260510185007 | 59 | 231 | 1.0 | 5.0 | 0.00 | 0.00 | 0.00 | 69 | 1016.5 |
| 20260510184526 | 59 | 240 | 2.0 | 7.0 | 0.00 | 0.00 | 0.00 | 68 | 1016.5 |
| 20260510184010 | 59 | 234 | 3.0 | 7.0 | 0.00 | 0.00 | 0.00 | 69 | 1016.5 |
| 20260510183511 | 59 | 269 | 2.0 | 9.0 | 0.00 | 0.00 | 0.00 | 68 | 1016.5 |
| 20260510183035 | 59 | 281 | 4.0 | 9.0 | 0.00 | 0.00 | 0.00 | 67 | 1016.4 |
| 20260510182509 | 59 | 252 | 4.0 | 10.0 | 0.00 | 0.00 | 0.00 | 67 | 1016.5 |
| 20260510182010 | 60 | 252 | 1.0 | 10.0 | 0.00 | 0.00 | 0.00 | 67 | 1016.5 |
| 20260510181527 | 60 | 264 | 4.0 | 15.0 | 0.00 | 0.00 | 0.00 | 67 | 1016.4 |
| 20260510181008 | 60 | 292 | 3.0 | 16.0 | 0.00 | 0.00 | 0.00 | 66 | 1016.3 |
| 20260510180513 | 60 | 246 | 6.0 | 16.0 | 0.00 | 0.00 | 0.00 | 66 | 1016.3 |
| 20260510180044 | 60 | 264 | 4.0 | 15.0 | 0.00 | 0.00 | 0.00 | 66 | 1016.4 |
| 20260510175509 | 61 | 270 | 6.0 | 15.0 | 0.00 | 0.00 | 0.00 | 65 | 1016.2 |
| 20260510175010 | 62 | 225 | 5.0 | 13.0 | 0.00 | 0.00 | 0.00 | 62 | 1016.0 |
| 20260510174519 | 62 | 277 | 7.0 | 13.0 | 0.00 | 0.00 | 0.00 | 57 | 1015.9 |
| 20260510174009 | 63 | 205 | 4.0 | 10.0 | 0.00 | 0.00 | 0.00 | 57 | 1015.7 |
| 20260510173507 | 63 | 269 | 3.0 | 18.0 | 0.00 | 0.00 | 0.00 | 56 | 1015.8 |
| 20260510173025 | 63 | 223 | 5.0 | 18.0 | 0.00 | 0.00 | 0.00 | 56 | 1015.7 |
| 20260510172509 | 63 | 206 | 5.0 | 15.0 | 0.00 | 0.00 | 0.00 | 56 | 1015.7 |
| 20260510172015 | 63 | 213 | 5.0 | 15.0 | 0.00 | 0.00 | 0.00 | 56 | 1015.6 |
| 20260510171525 | 63 | 207 | 4.0 | 14.0 | 0.00 | 0.00 | 0.00 | 55 | 1015.6 |
| 20260510171008 | 64 | 232 | 6.0 | 14.0 | 0.00 | 0.00 | 0.00 | 55 | 1015.7 |
| 20260510170507 | 64 | 246 | 9.0 | 14.0 | 0.00 | 0.00 | 0.00 | 55 | 1015.7 |
| 20260510170029 | 65 | 211 | 4.0 | 12.0 | 0.00 | 0.00 | 0.00 | 56 | 1015.7 |
| 20260510165510 | 65 | 203 | 6.0 | 14.0 | 0.00 | 0.00 | 0.00 | 55 | 1015.8 |
| 20260510165006 | 64 | 211 | 4.0 | 17.0 | 0.00 | 0.00 | 0.00 | 56 | 1015.8 |
| 20260510164543 | 64 | 219 | 7.0 | 16.0 | 0.00 | 0.00 | 0.00 | 57 | 1015.8 |
| 20260510164009 | 64 | 221 | 4.0 | 13.0 | 0.00 | 0.00 | 0.00 | 58 | 1015.7 |
| 20260510163510 | 63 | 230 | 5.0 | 13.0 | 0.00 | 0.00 | 0.00 | 58 | 1015.7 |
| 20260510163021 | 63 | 229 | 6.0 | 12.0 | 0.00 | 0.00 | 0.00 | 59 | 1015.8 |
| 20260510162511 | 63 | 197 | 3.0 | 18.0 | 0.00 | 0.00 | 0.00 | 59 | 1015.9 |
| 20260510162010 | 63 | 148 | 4.0 | 18.0 | 0.00 | 0.00 | 0.00 | 60 | 1015.9 |
| 20260510161528 | 63 | 200 | 6.0 | 13.0 | 0.00 | 0.00 | 0.00 | 59 | 1015.8 |
| 20260510161012 | 63 | 245 | 5.0 | 13.0 | 0.00 | 0.00 | 0.00 | 61 | 1015.9 |
| 20260510160509 | 62 | 238 | 6.0 | 17.0 | 0.00 | 0.00 | 0.00 | 60 | 1015.9 |
| 20260510160035 | 62 | 217 | 8.0 | 17.0 | 0.00 | 0.00 | 0.00 | 59 | 1015.9 |
| 20260510155510 | 63 | 203 | 9.0 | 15.0 | 0.00 | 0.02 | 0.00 | 60 | 1015.9 |
| 20260510155010 | 63 | 250 | 6.0 | 15.0 | 0.00 | 0.02 | 0.00 | 62 | 1015.9 |
| 20260510154530 | 63 | 226 | 6.0 | 15.0 | 0.00 | 0.02 | 0.00 | 61 | 1016.0 |
| 20260510154011 | 63 | 224 | 6.0 | 13.0 | 0.00 | 0.02 | 0.00 | 60 | 1015.9 |
| 20260510153508 | 64 | 201 | 4.0 | 15.0 | 0.00 | 0.02 | 0.00 | 61 | 1015.9 |
| 20260510153031 | 62 | 265 | 8.0 | 15.0 | 0.00 | 0.02 | 0.00 | 61 | 1016.1 |
| 20260510152513 | 63 | 153 | 6.0 | 11.0 | 0.00 | 0.02 | 0.00 | 61 | 1016.0 |
| 20260510152007 | 63 | 252 | 7.0 | 12.0 | 0.00 | 0.02 | 0.00 | 59 | 1016.0 |
| 20260510151529 | 63 | 259 | 9.0 | 15.0 | 0.00 | 0.02 | 0.00 | 59 | 1015.9 |
| 20260510151009 | 63 | 240 | 8.0 | 15.0 | 0.00 | 0.03 | 0.00 | 59 | 1016.0 |
| 20260510150507 | 64 | 296 | 6.0 | 13.0 | 0.00 | 0.03 | 0.00 | 59 | 1015.9 |
| 20260510150026 | 63 | 298 | 6.0 | 16.0 | 0.00 | 0.04 | 0.00 | 59 | 1015.9 |
| 20260510145509 | 63 | 206 | 8.0 | 17.0 | 0.00 | 0.04 | 0.00 | 57 | 1015.9 |
| 20260510145010 | 63 | 246 | 7.0 | 17.0 | 0.00 | 0.04 | 0.00 | 58 | 1016.0 |
| 20260510144527 | 63 | 240 | 9.0 | 17.0 | 0.00 | 0.04 | 0.00 | 58 | 1016.2 |
| 20260510144010 | 64 | 227 | 8.0 | 14.0 | 0.00 | 0.04 | 0.00 | 56 | 1016.1 |
| 20260510143511 | 64 | 234 | 7.0 | 15.0 | 0.00 | 0.04 | 0.00 | 57 | 1016.0 |
| 20260510143038 | 64 | 231 | 6.0 | 14.0 | 0.00 | 0.04 | 0.00 | 55 | 1016.0 |
| 20260510142510 | 64 | 232 | 6.0 | 14.0 | 0.00 | 0.04 | 0.00 | 56 | 1016.0 |
| 20260510142017 | 63 | 275 | 3.0 | 13.0 | 0.00 | 0.05 | 0.00 | 58 | 1016.0 |
| 20260510141530 | 62 | 255 | 6.0 | 18.0 | 0.00 | 0.05 | 0.00 | 57 | 1016.1 |
| 20260510141008 | 63 | 190 | 10.0 | 18.0 | 0.00 | 0.05 | 0.00 | 56 | 1016.2 |
| 20260510140511 | 63 | 214 | 6.0 | 15.0 | 0.00 | 0.05 | 0.00 | 57 | 1016.2 |
| 20260510140027 | 63 | 232 | 7.0 | 20.0 | 0.00 | 0.05 | 0.00 | 56 | 1016.3 |
| 20260510135509 | 62 | 275 | 8.0 | 20.0 | 0.00 | 0.05 | 0.00 | 56 | 1016.4 |
| 20260510135008 | 63 | 225 | 8.0 | 20.0 | 0.00 | 0.05 | 0.00 | 56 | 1016.3 |
| 20260510134528 | 63 | 221 | 10.0 | 18.0 | 0.00 | 0.05 | 0.00 | 56 | 1016.2 |
| 20260510134010 | 63 | 259 | 4.0 | 13.0 | 0.00 | 0.05 | 0.00 | 56 | 1016.2 |
| 20260510133511 | 63 | 217 | 5.0 | 14.0 | 0.00 | 0.05 | 0.00 | 56 | 1016.4 |
| 20260510133029 | 62 | 244 | 7.0 | 15.0 | 0.00 | 0.05 | 0.00 | 57 | 1016.2 |
| 20260510132511 | 62 | 277 | 6.0 | 17.0 | 0.00 | 0.05 | 0.00 | 57 | 1016.2 |
| 20260510132010 | 63 | 215 | 9.0 | 17.0 | 0.00 | 0.05 | 0.00 | 57 | 1016.3 |
| 20260510131528 | 63 | 192 | 7.0 | 17.0 | 0.00 | 0.05 | 0.00 | 56 | 1016.2 |
| 20260510131009 | 63 | 190 | 9.0 | 17.0 | 0.00 | 0.05 | 0.00 | 56 | 1016.3 |
| 20260510130509 | 63 | 228 | 8.0 | 17.0 | 0.00 | 0.05 | 0.00 | 56 | 1016.3 |
| 20260510130029 | 63 | 295 | 8.0 | 18.0 | 0.00 | 0.05 | 0.00 | 55 | 1016.3 |
| 20260510125511 | 62 | 211 | 8.0 | 19.0 | 0.00 | 0.05 | 0.00 | 56 | 1016.3 |
| 20260510125010 | 62 | 210 | 11.0 | 19.0 | 0.00 | 0.05 | 0.00 | 55 | 1016.3 |
| 20260510124535 | 63 | 227 | 10.0 | 19.0 | 0.00 | 0.05 | 0.00 | 55 | 1016.3 |
| 20260510124007 | 63 | 196 | 6.0 | 19.0 | 0.00 | 0.05 | 0.00 | 56 | 1016.3 |
| 20260510123507 | 63 | 192 | 6.0 | 17.0 | 0.00 | 0.05 | 0.00 | 56 | 1016.3 |
| 20260510123012 | 62 | 217 | 8.0 | 15.0 | 0.00 | 0.05 | 0.00 | 58 | 1016.3 |
| 20260510122505 | 62 | 224 | 9.0 | 16.0 | 0.00 | 0.05 | 0.00 | 56 | 1016.2 |
| 20260510122006 | 62 | 227 | 9.0 | 17.0 | 0.00 | 0.05 | 0.00 | 56 | 1016.3 |
| 20260510121517 | 62 | 233 | 8.0 | 17.0 | 0.00 | 0.06 | 0.00 | 56 | 1016.3 |
| 20260510121008 | 62 | 240 | 7.0 | 15.0 | 0.00 | 0.07 | 0.00 | 57 | 1016.3 |
| 20260510120508 | 62 | 225 | 7.0 | 13.0 | 0.00 | 0.07 | 0.00 | 57 | 1016.4 |
| 20260510120028 | 62 | 269 | 6.0 | 17.0 | 0.00 | 0.07 | 0.00 | 58 | 1016.4 |
| 20260510115507 | 62 | 219 | 9.0 | 17.0 | 0.00 | 0.07 | 0.00 | 56 | 1016.4 |
| 20260510115011 | 62 | 213 | 8.0 | 21.0 | 0.00 | 0.07 | 0.00 | 57 | 1016.4 |
| 20260510114526 | 62 | 245 | 8.0 | 21.0 | 0.00 | 0.07 | 0.00 | 57 | 1016.5 |
| 20260510114015 | 62 | 189 | 9.0 | 20.0 | 0.00 | 0.07 | 0.00 | 57 | 1016.5 |
| 20260510113510 | 62 | 202 | 7.0 | 16.0 | 0.00 | 0.07 | 0.00 | 58 | 1016.4 |
| 20260510113014 | 62 | 159 | 9.0 | 16.0 | 0.00 | 0.07 | 0.00 | 58 | 1016.5 |
| 20260510112505 | 63 | 212 | 9.0 | 15.0 | 0.00 | 0.07 | 0.00 | 58 | 1016.6 |
| 20260510112006 | 63 | 208 | 7.0 | 15.0 | 0.00 | 0.07 | 0.00 | 58 | 1016.5 |
| 20260510111515 | 63 | 211 | 5.0 | 18.0 | 0.00 | 0.07 | 0.00 | 58 | 1016.7 |
| 20260510111007 | 63 | 240 | 8.0 | 18.0 | 0.00 | 0.07 | 0.00 | 58 | 1016.7 |
| 20260510110510 | 63 | 215 | 5.0 | 12.0 | 0.00 | 0.07 | 0.00 | 59 | 1016.8 |
| 20260510110019 | 63 | 235 | 6.0 | 13.0 | 0.00 | 0.07 | 0.00 | 58 | 1016.9 |
| 20260510105507 | 63 | 225 | 5.0 | 17.0 | 0.00 | 0.07 | 0.00 | 58 | 1016.9 |
| 20260510105007 | 63 | 220 | 5.0 | 17.0 | 0.00 | 0.07 | 0.00 | 58 | 1017.0 |
| 20260510104527 | 63 | 261 | 6.0 | 16.0 | 0.00 | 0.07 | 0.00 | 58 | 1017.1 |
| 20260510104007 | 64 | 218 | 9.0 | 16.0 | 0.00 | 0.07 | 0.00 | 56 | 1017.0 |
| 20260510103510 | 64 | 222 | 8.0 | 16.0 | 0.00 | 0.07 | 0.00 | 57 | 1017.0 |
| 20260510103033 | 63 | 225 | 7.0 | 16.0 | 0.00 | 0.07 | 0.00 | 57 | 1016.9 |
| 20260510102511 | 63 | 260 | 9.0 | 17.0 | 0.00 | 0.07 | 0.00 | 57 | 1017.0 |
| 20260510102010 | 63 | 215 | 6.0 | 17.0 | 0.00 | 0.07 | 0.00 | 1016.9 | |
| 20260510101513 | 62 | 216 | 7.0 | 11.0 | 0.00 | 0.07 | 0.00 | 1017.0 | |
| 20260510101008 | 61 | 208 | 3.0 | 14.0 | 0.00 | 0.07 | 0.00 | 1017.0 | |
| 20260510100511 | 61 | 229 | 8.0 | 14.0 | 0.00 | 0.07 | 0.00 | 60 | 1017.2 |
| 20260510100019 | 61 | 259 | 5.0 | 12.0 | 0.00 | 0.07 | 0.00 | 60 | 1017.1 |
| 20260510095508 | 62 | 224 | 7.0 | 13.0 | 0.00 | 0.07 | 0.00 | 59 | 1017.0 |
| 20260510095006 | 63 | 269 | 7.0 | 13.0 | 0.00 | 0.07 | 0.00 | 57 | 1017.0 |
| 20260510094523 | 64 | 250 | 5.0 | 14.0 | 0.00 | 0.07 | 0.00 | 1016.8 | |
| 20260510094008 | 62 | 175 | 5.0 | 14.0 | 0.00 | 0.07 | 0.00 | 63 | 1016.8 |
| 20260510093507 | 61 | 215 | 6.0 | 13.0 | 0.00 | 0.07 | 0.00 | 63 | 1016.7 |
| 20260510093004 | 60 | 193 | 5.0 | 14.0 | 0.00 | 0.07 | 0.00 | 62 | 1016.9 |
| 20260510092504 | 60 | 251 | 6.0 | 14.0 | 0.00 | 0.07 | 0.00 | 63 | 1017.0 |
| 20260510092009 | 60 | 253 | 5.0 | 15.0 | 0.00 | 0.07 | 0.00 | 62 | 1017.0 |
| 20260510091525 | 60 | 225 | 8.0 | 15.0 | 0.00 | 0.07 | 0.00 | 1016.9 | |
| 20260510091003 | 60 | 241 | 6.0 | 14.0 | 0.00 | 0.07 | 0.00 | 1016.9 | |
| 20260510090503 | 61 | 241 | 4.0 | 9.0 | 0.00 | 0.07 | 0.00 | 1016.9 | |
| 20260510090015 | 60 | 213 | 5.0 | 11.0 | 0.00 | 0.07 | 0.00 | 1016.8 | |
| 20260510085506 | 61 | 229 | 6.0 | 10.0 | 0.00 | 0.07 | 0.00 | 62 | 1016.8 |
| 20260510085007 | 61 | 263 | 3.0 | 10.0 | 0.00 | 0.07 | 0.00 | 62 | 1016.8 |
| 20260510084522 | 60 | 221 | 5.0 | 15.0 | 0.00 | 0.07 | 0.00 | 65 | 1016.8 |
| 20260510084006 | 61 | 255 | 10.0 | 15.0 | 0.00 | 0.07 | 0.00 | 62 | 1017.0 |
| 20260510083510 | 62 | 277 | 4.0 | 10.0 | 0.00 | 0.07 | 0.00 | 63 | 1016.8 |
| 20260510083025 | 61 | 219 | 4.0 | 16.0 | 0.00 | 0.07 | 0.00 | 64 | 1016.7 |
| 20260510082509 | 61 | 215 | 5.0 | 16.0 | 0.00 | 0.07 | 0.00 | 64 | 1016.8 |
| 20260510082004 | 60 | 248 | 5.0 | 14.0 | 0.00 | 0.07 | 0.00 | 65 | 1016.9 |
| 20260510081522 | 59 | 209 | 7.0 | 14.0 | 0.00 | 0.07 | 0.00 | 64 | 1016.9 |
| 20260510081006 | 60 | 271 | 5.0 | 14.0 | 0.00 | 0.07 | 0.00 | 65 | 1016.8 |
| 20260510080507 | 59 | 224 | 4.0 | 10.0 | 0.00 | 0.07 | 0.00 | 65 | 1016.8 |
| 20260510080013 | 59 | 167 | 5.0 | 13.0 | 0.00 | 0.07 | 0.00 | 66 | 1016.9 |
| 20260510075506 | 58 | 249 | 7.0 | 14.0 | 0.00 | 0.07 | 0.00 | 66 | 1017.0 |
| 20260510075007 | 58 | 243 | 6.0 | 14.0 | 0.00 | 0.07 | 0.00 | 66 | 1017.1 |
| 20260510074518 | 58 | 279 | 6.0 | 13.0 | 0.00 | 0.07 | 0.00 | 67 | 1017.1 |
| 20260510074011 | 58 | 231 | 5.0 | 12.0 | 0.00 | 0.07 | 0.00 | 67 | 1017.0 |
| 20260510073513 | 57 | 273 | 5.0 | 12.0 | 0.00 | 0.07 | 0.00 | 69 | 1017.0 |
| 20260510073032 | 57 | 258 | 6.0 | 11.0 | 0.00 | 0.07 | 0.00 | 68 | 1017.0 |
| 20260510072507 | 56 | 247 | 4.0 | 11.0 | 0.00 | 0.07 | 0.00 | 69 | 1017.0 |
| 20260510072008 | 55 | 261 | 4.0 | 10.0 | 0.00 | 0.07 | 0.00 | 69 | 1017.0 |
| 20260510071534 | 55 | 246 | 6.0 | 11.0 | 0.00 | 0.07 | 0.00 | 70 | 1016.9 |
| 20260510071008 | 54 | 228 | 4.0 | 11.0 | 0.00 | 0.07 | 0.00 | 71 | 1016.9 |
| 20260510070506 | 53 | 240 | 6.0 | 10.0 | 0.00 | 0.07 | 0.00 | 74 | 1016.9 |
| 20260510070014 | 52 | 210 | 3.0 | 6.0 | 0.00 | 0.07 | 0.00 | 77 | 1016.9 |
| 20260510065506 | 51 | 196 | 0.0 | 5.0 | 0.00 | 0.07 | 0.00 | 80 | 1016.8 |
| 20260510065008 | 50 | 221 | 0.0 | 2.0 | 0.00 | 0.07 | 0.00 | 81 | 1016.7 |
| 20260510064542 | 50 | 229 | 0.0 | 2.0 | 0.00 | 0.07 | 0.00 | 81 | 1016.7 |
| 20260510064005 | 50 | 238 | 0.0 | 2.0 | 0.00 | 0.07 | 0.00 | 81 | 1016.6 |
| 20260510063506 | 49 | 209 | 0.0 | 0.0 | 0.00 | 0.07 | 0.00 | 81 | 1016.5 |
| 20260510063025 | 49 | 266 | 0.0 | 0.0 | 0.00 | 0.07 | 0.00 | 81 | 1016.5 |
| 20260510062509 | 49 | 306 | 0.0 | 2.0 | 0.00 | 0.07 | 0.00 | 81 | 1016.5 |
| 20260510062010 | 48 | 306 | 0.0 | 2.0 | 0.00 | 0.07 | 0.00 | 81 | 1016.5 |
| 20260510061535 | 48 | 305 | 0.0 | 2.0 | 0.00 | 0.07 | 0.00 | 82 | 1016.7 |
| 20260510061010 | 48 | 281 | 0.0 | 2.0 | 0.00 | 0.08 | 0.00 | 83 | 1016.8 |
| 20260510060510 | 47 | 292 | 1.0 | 2.0 | 0.00 | 0.10 | 0.00 | 84 | 1016.7 |
| 20260510060035 | 46 | 275 | 0.0 | 2.0 | 0.00 | 0.10 | 0.00 | 84 | 1016.5 |
| 20260510055505 | 46 | 337 | 0.0 | 2.0 | 0.00 | 0.10 | 0.00 | 83 | 1016.5 |
| 20260510055004 | 46 | 331 | 0.0 | 2.0 | 0.00 | 0.10 | 0.00 | 84 | 1016.4 |
| 20260510054514 | 46 | 323 | 0.0 | 1.0 | 0.00 | 0.10 | 0.00 | 84 | 1016.3 |
| 20260510054007 | 46 | 323 | 0.0 | 2.0 | 0.00 | 0.10 | 0.00 | 85 | 1016.3 |
| 20260510053511 | 46 | 323 | 0.0 | 2.0 | 0.00 | 0.10 | 0.00 | 85 | 1016.2 |
| 20260510053016 | 45 | 36 | 0.0 | 2.0 | 0.00 | 0.10 | 0.00 | 84 | 1016.2 |
| 20260510052506 | 45 | 333 | 0.0 | 2.0 | 0.00 | 0.10 | 0.00 | 84 | 1016.1 |
| 20260510052010 | 45 | 9 | 0.0 | 2.0 | 0.00 | 0.10 | 0.00 | 84 | 1016.0 |
| 20260510051524 | 45 | 5 | 0.0 | 0.0 | 0.00 | 0.10 | 0.00 | 84 | 1016.2 |
| 20260510051011 | 45 | 5 | 0.0 | 0.0 | 0.00 | 0.10 | 0.00 | 84 | 1016.2 |
| 20260510050508 | 45 | 5 | 0.0 | 0.0 | 0.00 | 0.10 | 0.00 | 85 | 1016.2 |
| 20260510050023 | 45 | 5 | 0.0 | 0.0 | 0.00 | 0.10 | 0.00 | 85 | 1016.2 |
| 20260510045510 | 45 | 5 | 0.0 | 0.0 | 0.00 | 0.10 | 0.00 | 85 | 1016.1 |
| 20260510045015 | 45 | 5 | 0.0 | 0.0 | 0.00 | 0.10 | 0.00 | 85 | 1016.1 |
| 20260510044532 | 45 | 5 | 0.0 | 2.0 | 0.00 | 0.11 | 0.00 | 85 | 1016.1 |
| 20260510044011 | 45 | 9 | 0.0 | 2.0 | 0.00 | 0.11 | 0.00 | 85 | 1016.0 |
| 20260510043504 | 45 | 5 | 0.0 | 2.0 | 0.00 | 0.11 | 0.00 | 85 | 1015.9 |
| 20260510043016 | 45 | 352 | 0.0 | 1.0 | 0.00 | 0.11 | 0.00 | 85 | 1015.9 |
| 20260510042507 | 45 | 11 | 0.0 | 0.0 | 0.00 | 0.11 | 0.00 | 85 | 1015.9 |
| 20260510042010 | 45 | 11 | 0.0 | 0.0 | 0.00 | 0.11 | 0.00 | 85 | 1016.0 |
| 20260510041520 | 45 | 11 | 0.0 | 0.0 | 0.00 | 0.11 | 0.00 | 85 | 1016.0 |
| 20260510041008 | 46 | 15 | 0.0 | 0.0 | 0.00 | 0.11 | 0.00 | 85 | 1016.0 |
| 20260510040507 | 46 | 15 | 0.0 | 0.0 | 0.00 | 0.11 | 0.00 | 85 | 1016.2 |
| 20260510040024 | 45 | 15 | 0.0 | 0.0 | 0.00 | 0.11 | 0.00 | 85 | 1016.2 |
| 20260510035507 | 45 | 15 | 0.0 | 0.0 | 0.00 | 0.11 | 0.00 | 85 | 1016.2 |
| 20260510035009 | 45 | 15 | 0.0 | 0.0 | 0.00 | 0.11 | 0.00 | 85 | 1016.2 |
| 20260510034528 | 45 | 15 | 0.0 | 0.0 | 0.00 | 0.11 | 0.00 | 85 | 1016.3 |
| 20260510034011 | 45 | 15 | 0.0 | 1.0 | 0.00 | 0.11 | 0.00 | 85 | 1016.3 |
| 20260510033508 | 45 | 15 | 0.0 | 1.0 | 0.00 | 0.11 | 0.00 | 85 | 1016.3 |
| 20260510033027 | 45 | 352 | 0.0 | 2.0 | 0.00 | 0.11 | 0.00 | 84 | 1016.4 |
| 20260510032506 | 46 | 352 | 0.0 | 2.0 | 0.00 | 0.11 | 0.00 | 85 | 1016.4 |
| 20260510032010 | 46 | 334 | 0.0 | 0.0 | 0.00 | 0.11 | 0.00 | 84 | 1016.4 |
| 20260510031519 | 46 | 286 | 0.0 | 0.0 | 0.00 | 0.12 | 0.00 | 84 | 1016.4 |
| 20260510031011 | 46 | 286 | 0.0 | 0.0 | 0.00 | 0.13 | 0.00 | 84 | 1016.4 |
| 20260510030507 | 47 | 286 | 0.0 | 0.0 | 0.00 | 0.13 | 0.00 | 84 | 1016.4 |
| 20260510030024 | 47 | 286 | 0.0 | 0.0 | 0.00 | 0.13 | 0.00 | 84 | 1016.4 |
| 20260510025508 | 47 | 286 | 0.0 | 0.0 | 0.00 | 0.13 | 0.00 | 84 | 1016.4 |
| 20260510025008 | 47 | 286 | 0.0 | 0.0 | 0.00 | 0.14 | 0.00 | 84 | 1016.4 |
| 20260510024532 | 47 | 286 | 0.0 | 0.0 | 0.00 | 0.14 | 0.00 | 84 | 1016.3 |
| 20260510024010 | 47 | 286 | 0.0 | 0.0 | 0.00 | 0.14 | 0.00 | 84 | 1016.4 |
| 20260510023508 | 46 | 286 | 0.0 | 0.0 | 0.00 | 0.14 | 0.00 | 84 | 1016.4 |
| 20260510023028 | 46 | 286 | 0.0 | 0.0 | 0.00 | 0.14 | 0.00 | 84 | 1016.4 |
| 20260510022511 | 46 | 286 | 0.0 | 0.0 | 0.00 | 0.14 | 0.00 | 84 | 1016.4 |
| 20260510022011 | 46 | 286 | 0.0 | 0.0 | 0.00 | 0.14 | 0.00 | 84 | 1016.4 |
| 20260510021516 | 46 | 286 | 0.0 | 0.0 | 0.00 | 0.14 | 0.00 | 84 | 1016.4 |
| 20260510021008 | 46 | 286 | 0.0 | 0.0 | 0.00 | 0.14 | 0.00 | 83 | 1016.4 |
| 20260510020507 | 46 | 286 | 0.0 | 0.0 | 0.00 | 0.14 | 0.00 | 83 | 1016.4 |
| 20260510020022 | 47 | 286 | 0.0 | 0.0 | 0.00 | 0.14 | 0.00 | 83 | 1016.3 |
| 20260510015509 | 47 | 286 | 0.0 | 0.0 | 0.00 | 0.14 | 0.00 | 83 | 1016.3 |
| 20260510015010 | 46 | 286 | 0.0 | 0.0 | 0.00 | 0.14 | 0.00 | 83 | 1016.3 |
| 20260510014528 | 47 | 286 | 0.0 | 0.0 | 0.00 | 0.14 | 0.00 | 82 | 1016.3 |
| 20260510014007 | 47 | 286 | 0.0 | 0.0 | 0.00 | 0.14 | 0.00 | 82 | 1016.3 |
| 20260510013507 | 48 | 286 | 0.0 | 0.0 | 0.00 | 0.14 | 0.00 | 82 | 1016.3 |
| 20260510013028 | 48 | 286 | 0.0 | 0.0 | 0.00 | 0.14 | 0.00 | 82 | 1016.3 |
| 20260510012509 | 48 | 286 | 0.0 | 0.0 | 0.00 | 0.14 | 0.00 | 82 | 1016.3 |
| 20260510012010 | 49 | 286 | 0.0 | 0.0 | 0.00 | 0.14 | 0.00 | 82 | 1016.3 |
| 20260510011527 | 49 | 286 | 0.0 | 0.0 | 0.00 | 0.14 | 0.00 | 82 | 1016.4 |
| 20260510011013 | 49 | 286 | 0.0 | 0.0 | 0.00 | 0.14 | 0.00 | 82 | 1016.4 |
| 20260510010510 | 49 | 286 | 0.0 | 0.0 | 0.00 | 0.14 | 0.00 | 82 | 1016.5 |
| 20260510010017 | 48 | 286 | 0.0 | 0.0 | 0.00 | 0.14 | 0.00 | 82 | 1016.6 |
| 20260510005508 | 49 | 294 | 0.0 | 0.0 | 0.00 | 0.14 | 0.00 | 82 | 1016.6 |
| 20260510005006 | 48 | 294 | 0.0 | 0.0 | 0.00 | 0.14 | 0.00 | 82 | 1016.5 |
| 20260510004504 | 48 | 294 | 0.0 | 0.0 | 0.00 | 0.14 | 0.00 | 81 | 1016.5 |
| 20260510004006 | 49 | 294 | 0.0 | 0.0 | 0.00 | 0.14 | 0.00 | 81 | 1016.7 |
| 20260510003505 | 50 | 294 | 0.0 | 0.0 | 0.00 | 0.14 | 0.00 | 81 | 1016.8 |
| 20260510003008 | 50 | 294 | 0.0 | 0.0 | 0.00 | 0.14 | 0.00 | 81 | 1016.8 |
| 20260510002504 | 50 | 294 | 0.0 | 0.0 | 0.00 | 0.14 | 0.00 | 81 | 1016.8 |
| 20260510002006 | 50 | 294 | 0.0 | 0.0 | 0.00 | 0.14 | 0.00 | 80 | 1016.8 |
| 20260510001511 | 50 | 294 | 0.0 | 0.0 | 0.00 | 0.14 | 0.00 | 80 | 1016.8 |
| 20260510001005 | 50 | 294 | 0.0 | 0.0 | 0.00 | 0.14 | 0.00 | 80 | 1016.8 |
| 20260510000506 | 51 | 294 | 0.0 | 0.0 | 0.00 | 0.14 | 0.00 | 80 | 1016.8 |
| 20260510000014 | 51 | 273 | 0.0 | 0.0 | 0.00 | 0.14 | 0.00 | 79 | 1016.8 |
| 20260509235506 | 51 | 269 | 0.0 | 2.0 | 0.00 | 0.14 | 0.00 | 78 | 1016.9 |
| 20260509235012 | 51 | 269 | 0.0 | 2.0 | 0.00 | 0.14 | 0.00 | 78 | 1017.0 |
| 20260509234534 | 52 | 273 | 0.0 | 2.0 | 0.00 | 0.14 | 0.00 | 78 | 1017.0 |
| 20260509234009 | 52 | 240 | 0.0 | 2.0 | 0.00 | 0.14 | 0.00 | 77 | 1017.1 |
| 20260509233507 | 52 | 254 | 0.0 | 2.0 | 0.00 | 0.14 | 0.00 | 76 | 1017.0 |
| 20260509233008 | 52 | 267 | 0.0 | 2.0 | 0.00 | 0.14 | 0.00 | 77 | 1017.0 |
| 20260509232504 | 52 | 270 | 0.0 | 1.0 | 0.00 | 0.14 | 0.00 | 77 | 1017.0 |
| 20260509232006 | 52 | 291 | 0.0 | 2.0 | 0.00 | 0.14 | 0.00 | 78 | 1017.1 |
| 20260509231509 | 52 | 291 | 0.0 | 2.0 | 0.00 | 0.14 | 0.00 | 78 | 1017.1 |
| 20260509231002 | 52 | 291 | 0.0 | 2.0 | 0.00 | 0.14 | 0.00 | 78 | 1017.1 |
| 20260509230505 | 52 | 290 | 0.0 | 2.0 | 0.00 | 0.14 | 0.00 | 78 | 1017.2 |
| 20260509230013 | 52 | 299 | 0.0 | 2.0 | 0.00 | 0.14 | 0.00 | 78 | 1017.1 |
| 20260509225510 | 52 | 299 | 0.0 | 2.0 | 0.00 | 0.14 | 0.00 | 76 | 1017.1 |
| 20260509225009 | 52 | 294 | 1.0 | 3.0 | 0.00 | 0.14 | 0.00 | 76 | 1017.1 |
| 20260509224519 | 52 | 275 | 0.0 | 3.0 | 0.00 | 0.14 | 0.00 | 76 | 1017.1 |
| 20260509224008 | 53 | 290 | 1.0 | 2.0 | 0.00 | 0.14 | 0.00 | 76 | 1017.1 |